• en Suisse
  • Liste des pays
  • À 7 jours
  • Température de l'eau
  • Carte satellitaire
  • Carte météo
  • Widgets météo
  • user-avatar
    Se connecter

    Météo par heure à Serebryanka

    Ce jour, 24 Septembre, Lundi

    Heure Température Précipitation Vent Pression Humidité
    00:00 +14°C° 0 mm 2 m/s 756 mmHg 80%
    01:00 +14°C° 0 mm 2 m/s 756 mmHg 81%
    02:00 +13°C° 0 mm 2 m/s 755 mmHg 82%
    03:00 +13°C° 0 mm 2 m/s 755 mmHg 83%
    04:00 +12°C° 0 mm 3 m/s 755 mmHg 85%
    05:00 +12°C° 0 mm 3 m/s 755 mmHg 86%
    06:00 +13°C° 0 mm 4 m/s 754 mmHg 80%
    07:00 +15°C° 0 mm 4 m/s 754 mmHg 74%
    08:00 +18°C° 0 mm 4 m/s 753 mmHg 66%
    09:00 +20°C° 0 mm 4 m/s 753 mmHg 61%
    10:00 +22°C° 0 mm 5 m/s 753 mmHg 55%
    11:00 +25°C° 0 mm 5 m/s 753 mmHg 50%
    12:00 +26°C° 0 mm 6 m/s 752 mmHg 49%
    13:00 +26°C° 0 mm 6 m/s 751 mmHg 49%
    14:00 +27°C° 0 mm 7 m/s 751 mmHg 47%
    15:00 +27°C° 0 mm 7 m/s 750 mmHg 51%
    16:00 +26°C° 0 mm 7 m/s 750 mmHg 55%
    17:00 +24°C° 0 mm 7 m/s 749 mmHg 58%
    18:00 +23°C° 0.1 mm 7 m/s 749 mmHg 63%
    19:00 +22°C° 0.1 mm 7 m/s 749 mmHg 68%
    20:00 +21°C° 0.1 mm 6 m/s 749 mmHg 74%
    21:00 +20°C° 0.2 mm 7 m/s 750 mmHg 74%
    22:00 +18°C° 0.2 mm 8 m/s 750 mmHg 75%
    23:00 +16°C° 0.2 mm 9 m/s 751 mmHg 76%

    Demain, 25 Septembre, Mardi

    Heure Température Précipitation Vent Pression Humidité
    00:00 +15°C° 0.3 mm 9 m/s 751 mmHg 76%
    01:00 +13°C° 0.3 mm 8 m/s 752 mmHg 76%
    02:00 +12°C° 0.3 mm 8 m/s 752 mmHg 76%
    03:00 +11°C° 0.6 mm 8 m/s 753 mmHg 76%
    04:00 +11°C° 0.6 mm 7 m/s 753 mmHg 76%
    05:00 +11°C° 0.6 mm 6 m/s 753 mmHg 76%
    06:00 +11°C° 0.1 mm 6 m/s 754 mmHg 72%
    07:00 +11°C° 0.1 mm 7 m/s 754 mmHg 68%
    08:00 +12°C° 0.1 mm 7 m/s 755 mmHg 65%
    09:00 +12°C° 0 mm 7 m/s 755 mmHg 61%
    10:00 +14°C° 0 mm 7 m/s 756 mmHg 56%
    11:00 +14°C° 0 mm 7 m/s 756 mmHg 52%
    12:00 +15°C° 0 mm 7 m/s 756 mmHg 51%
    13:00 +15°C° 0 mm 8 m/s 757 mmHg 49%
    14:00 +15°C° 0 mm 8 m/s 757 mmHg 47%
    15:00 +15°C° 0 mm 7 m/s 757 mmHg 48%
    16:00 +14°C° 0 mm 7 m/s 757 mmHg 49%
    17:00 +14°C° 0 mm 7 m/s 758 mmHg 49%
    18:00 +13°C° 0 mm 6 m/s 758 mmHg 51%
    19:00 +11°C° 0 mm 6 m/s 759 mmHg 53%
    20:00 +12°C° 0 mm 5 m/s 759 mmHg 55%
    21:00 +10°C° 0 mm 5 m/s 760 mmHg 55%
    22:00 +10°C° 0 mm 5 m/s 760 mmHg 56%
    23:00 +10°C° 0 mm 5 m/s 760 mmHg 56%

    Après-demain, 26 Septembre, Mercredi

    Heure Température Précipitation Vent Pression Humidité
    00:00 +9°C° 0 mm 5 m/s 761 mmHg 58%
    01:00 +9°C° 0 mm 5 m/s 761 mmHg 60%
    02:00 +8°C° 0 mm 5 m/s 761 mmHg 62%
    03:00 +8°C° 0 mm 5 m/s 761 mmHg 64%
    04:00 +7°C° 0 mm 5 m/s 762 mmHg 66%
    05:00 +7°C° 0 mm 5 m/s 762 mmHg 67%
    06:00 +8°C° 0 mm 5 m/s 762 mmHg 64%
    07:00 +9°C° 0 mm 5 m/s 763 mmHg 60%
    08:00 +10°C° 0 mm 5 m/s 763 mmHg 56%
    09:00 +12°C° 0 mm 5 m/s 763 mmHg 51%
    10:00 +13°C° 0 mm 5 m/s 763 mmHg 46%
    11:00 +13°C° 0 mm 6 m/s 764 mmHg 42%
    12:00 +14°C° 0 mm 6 m/s 763 mmHg 40%
    13:00 +14°C° 0 mm 5 m/s 763 mmHg 37%
    14:00 +14°C° 0 mm 5 m/s 763 mmHg 35%
    15:00 +14°C° 0 mm 5 m/s 763 mmHg 36%
    16:00 +14°C° 0 mm 5 m/s 763 mmHg 37%
    17:00 +13°C° 0 mm 5 m/s 763 mmHg 38%
    18:00 +12°C° 0 mm 4 m/s 764 mmHg 40%
    19:00 +12°C° 0 mm 4 m/s 764 mmHg 41%
    20:00 +11°C° 0 mm 4 m/s 764 mmHg 43%
    21:00 +11°C° 0 mm 4 m/s 764 mmHg 44%
    22:00 +10°C° 0 mm 4 m/s 764 mmHg 45%
    23:00 +10°C° 0 mm 4 m/s 765 mmHg 46%

    27 Septembre, Jeudi

    Heure Température Précipitation Vent Pression Humidité
    00:00 +10°C° 0 mm 4 m/s 764 mmHg 51%
    01:00 +8°C° 0 mm 4 m/s 764 mmHg 56%
    02:00 +8°C° 0 mm 4 m/s 764 mmHg 60%
    03:00 +7°C° 0 mm 4 m/s 764 mmHg 63%
    04:00 +7°C° 0 mm 4 m/s 764 mmHg 65%
    05:00 +6°C° 0 mm 4 m/s 764 mmHg 68%
    06:00 +9°C° 0 mm 3 m/s 764 mmHg 64%
    07:00 +10°C° 0 mm 3 m/s 764 mmHg 59%
    08:00 +11°C° 0 mm 3 m/s 764 mmHg 55%
    09:00 +12°C° 0 mm 3 m/s 764 mmHg 49%
    10:00 +13°C° 0 mm 3 m/s 764 mmHg 43%
    11:00 +15°C° 0 mm 2 m/s 764 mmHg 37%
    12:00 +15°C° 0 mm 2 m/s 763 mmHg 35%
    13:00 +16°C° 0 mm 3 m/s 763 mmHg 34%
    14:00 +16°C° 0 mm 3 m/s 762 mmHg 32%
    15:00 +16°C° 0 mm 3 m/s 762 mmHg 34%
    16:00 +14°C° 0 mm 3 m/s 762 mmHg 35%
    17:00 +14°C° 0 mm 3 m/s 761 mmHg 37%
    18:00 +13°C° 0 mm 3 m/s 761 mmHg 40%
    19:00 +13°C° 0 mm 2 m/s 761 mmHg 43%
    20:00 +12°C° 0 mm 2 m/s 761 mmHg 46%
    21:00 +10°C° 0 mm 2 m/s 761 mmHg 47%
    22:00 +10°C° 0 mm 2 m/s 761 mmHg 47%
    23:00 +11°C° 0 mm 1 m/s 761 mmHg 48%

    28 Septembre, Vendredi

    Heure Température Précipitation Vent Pression Humidité
    00:00 +11°C° 0 mm 1 m/s 760 mmHg 48%
    01:00 +11°C° 0 mm 1 m/s 760 mmHg 48%
    02:00 +11°C° 0 mm 1 m/s 760 mmHg 48%
    03:00 +10°C° 0 mm 1 m/s 760 mmHg 47%
    04:00 +10°C° 0 mm 1 m/s 759 mmHg 46%
    05:00 +10°C° 0 mm 1 m/s 759 mmHg 46%
    06:00 +12°C° 0 mm 1 m/s 759 mmHg 42%
    07:00 +13°C° 0 mm 1 m/s 759 mmHg 39%
    08:00 +15°C° 0 mm 2 m/s 758 mmHg 36%
    09:00 +16°C° 0 mm 2 m/s 758 mmHg 35%
    10:00 +18°C° 0 mm 2 m/s 758 mmHg 34%
    11:00 +19°C° 0 mm 2 m/s 758 mmHg 32%
    12:00 +20°C° 0 mm 2 m/s 757 mmHg 33%
    13:00 +20°C° 0 mm 2 m/s 757 mmHg 33%
    14:00 +21°C° 0 mm 2 m/s 756 mmHg 33%
    15:00 +20°C° 0 mm 2 m/s 756 mmHg 36%
    16:00 +20°C° 0 mm 2 m/s 756 mmHg 39%
    17:00 +19°C° 0 mm 2 m/s 755 mmHg 42%
    18:00 +17°C° 0 mm 2 m/s 755 mmHg 45%
    19:00 +16°C° 0 mm 2 m/s 755 mmHg 48%
    20:00 +15°C° 0 mm 2 m/s 755 mmHg 52%
    21:00 +15°C° 0 mm 2 m/s 755 mmHg 52%
    22:00 +14°C° 0 mm 2 m/s 755 mmHg 53%
    23:00 +14°C° 0 mm 1 m/s 755 mmHg 54%

    29 Septembre, Samedi

    Heure Température Précipitation Vent Pression Humidité
    00:00 +14°C° 0 mm 1 m/s 754 mmHg 54%
    01:00 +14°C° 0 mm 1 m/s 754 mmHg 55%
    02:00 +13°C° 0 mm 1 m/s 754 mmHg 56%
    03:00 +13°C° 0 mm 2 m/s 754 mmHg 57%
    04:00 +13°C° 0 mm 2 m/s 753 mmHg 59%
    05:00 +12°C° 0 mm 3 m/s 753 mmHg 61%
    06:00 +13°C° 0 mm 3 m/s 753 mmHg 58%
    07:00 +16°C° 0 mm 3 m/s 753 mmHg 55%
    08:00 +17°C° 0 mm 3 m/s 753 mmHg 52%
    09:00 +19°C° 0 mm 3 m/s 753 mmHg 48%
    10:00 +20°C° 0 mm 3 m/s 753 mmHg 43%
    11:00 +22°C° 0 mm 3 m/s 753 mmHg 39%
    12:00 +22°C° 0 mm 3 m/s 752 mmHg 38%
    13:00 +24°C° 0 mm 3 m/s 752 mmHg 37%
    14:00 +24°C° 0 mm 3 m/s 752 mmHg 36%
    15:00 +22°C° 0 mm 3 m/s 751 mmHg 40%
    16:00 +21°C° 0 mm 3 m/s 751 mmHg 44%
    17:00 +20°C° 0 mm 3 m/s 751 mmHg 47%
    18:00 +19°C° 0 mm 2 m/s 752 mmHg 50%
    19:00 +18°C° 0 mm 2 m/s 752 mmHg 53%
    20:00 +19°C° 0 mm 1 m/s 752 mmHg 55%
    21:00 +18°C° 0 mm 2 m/s 752 mmHg 55%
    22:00 +18°C° 0 mm 2 m/s 752 mmHg 56%
    23:00 +18°C° 0 mm 2 m/s 752 mmHg 56%
    Voir plus